Theta_e
316 321 322 320 321 321 324 327 328 331 328 324 321 318 317 319 319 319 322 321 319 321 321 318 319 317 318 319 317 318 319 325 326 326 323 327 327 324 327 323 325 325 326 331 334 336 337 341 343 342 344 343 343 344 343 343 342 342 342 342 341 340 339 336 335 336 335 337 337 336 335 335 336 336 337 337 337 337 336 337 337 338 339 340 339 339 338 335 333 332 332 331 331 331 331 331 331
317 322 322 320 321 319 324 330 330 332 329 318 316 317 315 318 319 321 325 325 322 318 318 319 320 319 319 319 317 318 318 320 321 322 324 324 324 324 324 323 325 323 326 331 333 336 336 340 342 342 343 343 343 343 343 342 343 343 342 342 341 341 339 335 335 336 335 336 336 335 335 335 335 335 336 336 337 336 335 336 337 338 338 339 339 339 338 337 335 334 333 334 334 334 334 334 333
318 322 321 320 320 321 331 330 326 332 328 315 318 324 317 316 322 326 328 329 324 317 319 318 319 320 319 321 318 319 321 320 318 324 330 322 323 323 322 324 324 324 326 329 333 335 336 338 341 342 342 343 342 343 343 342 343 342 342 342 341 341 338 335 335 336 335 336 335 334 333 334 334 334 335 335 337 336 335 336 337 338 338 339 338 338 337 336 336 333 331 331 331 332 334 334 334
320 323 320 320 320 327 346 337 334 338 326 318 318 324 323 320 325 329 328 326 322 317 320 318 318 318 317 322 319 317 321 321 317 323 331 321 322 322 322 325 323 325 326 329 332 333 335 337 339 341 342 343 342 342 343 342 342 341 341 341 341 340 338 336 336 336 336 335 334 334 333 333 333 333 332 333 336 335 335 335 337 338 338 339 338 337 336 334 333 331 328 326 324 325 328 332 334
320 322 317 318 322 326 339 331 332 332 320 322 316 317 329 329 327 327 327 323 320 319 320 319 320 317 316 321 319 320 322 320 316 317 324 321 321 321 322 324 323 325 326 329 331 332 334 336 338 340 341 342 341 342 342 342 341 341 341 340 340 339 337 337 336 336 335 334 335 336 336 336 336 336 334 333 334 335 335 335 337 338 338 338 337 336 333 332 331 330 328 323 321 321 320 323 328
320 321 318 317 317 317 327 323 320 324 324 327 316 317 326 327 325 322 325 323 320 318 318 319 319 318 318 320 317 319 320 317 318 318 321 322 322 321 323 323 323 325 327 330 332 333 333 335 337 339 341 341 341 341 341 342 341 341 340 340 340 339 337 336 336 336 335 334 336 337 338 338 338 338 337 335 334 334 334 335 336 337 337 336 336 334 332 332 331 331 327 323 324 324 318 311 314
318 319 322 321 319 321 332 327 323 326 322 320 316 319 321 320 322 319 322 322 319 317 317 318 318 318 319 318 316 316 315 316 319 320 322 323 322 323 323 322 323 324 327 330 332 334 332 334 335 338 340 340 340 340 341 341 341 341 340 341 340 339 336 335 336 335 334 335 337 338 338 338 338 338 338 336 334 334 334 335 337 337 336 335 333 332 331 332 332 330 328 328 327 327 320 306 303
318 320 325 332 333 335 339 328 330 329 317 316 317 320 321 319 318 319 322 319 318 318 319 320 318 319 318 316 319 318 313 317 321 319 321 323 323 324 323 323 323 324 328 330 332 335 334 334 335 336 339 340 339 340 341 340 341 341 340 341 339 339 336 334 336 334 334 336 338 339 338 338 338 338 338 338 334 334 335 335 336 336 335 334 333 332 331 331 331 330 329 329 327 326 319 303 300
317 318 324 331 331 334 336 325 323 324 321 322 320 322 323 318 316 318 321 319 318 320 320 319 317 318 318 318 323 320 314 319 321 319 322 323 323 324 323 323 325 325 328 331 333 335 334 334 334 335 337 339 339 339 340 339 340 341 341 340 339 339 335 335 335 334 333 336 339 339 338 338 338 338 338 338 335 333 334 333 334 334 334 333 332 331 331 331 330 329 328 326 324 323 312 299 299
319 319 324 331 330 326 325 323 322 322 324 323 319 323 322 316 317 318 319 319 316 318 319 316 316 319 318 319 323 319 316 319 320 321 322 322 323 323 323 324 326 327 327 330 333 334 334 334 334 336 337 339 339 339 340 339 340 340 340 340 340 339 335 334 334 334 333 336 339 338 338 338 338 338 338 338 336 334 333 333 333 333 332 332 329 327 327 328 328 327 324 320 317 313 303 298 299
327 328 331 333 328 318 316 322 329 329 328 323 320 323 319 315 316 318 319 317 316 316 317 316 318 321 319 320 325 319 315 318 319 322 321 321 321 322 323 323 326 328 329 330 332 333 334 334 334 336 338 339 339 339 340 339 340 340 340 340 339 339 336 333 333 333 333 335 337 338 338 338 338 338 338 338 336 335 334 334 333 333 332 332 330 326 325 326 327 325 321 317 311 303 298 298 299
326 333 342 340 324 318 319 324 330 335 334 325 318 318 316 315 317 316 317 316 317 318 318 317 316 318 320 323 322 316 313 317 320 319 320 321 320 321 323 323 326 329 331 332 332 333 334 334 334 336 338 339 339 339 340 339 339 339 340 340 339 339 337 334 333 333 334 335 336 337 338 338 338 338 338 338 337 336 334 335 334 334 333 333 331 328 326 326 326 324 322 320 311 299 298 299 298
333 333 337 330 321 323 322 321 326 332 331 321 316 316 313 315 318 316 317 318 316 318 317 316 316 315 318 319 319 319 316 318 321 319 319 320 320 321 323 324 326 329 332 333 333 333 333 334 334 335 337 338 339 339 340 339 339 338 338 339 339 339 337 335 334 333 333 335 336 337 337 337 338 338 338 338 338 336 335 335 334 334 333 332 331 328 327 326 325 324 322 321 314 300 298 299 298
333 335 333 320 318 327 323 319 323 324 318 317 319 318 314 315 318 317 316 317 317 317 314 312 314 316 316 316 323 329 318 316 320 319 318 319 320 321 323 325 326 328 331 333 334 334 333 334 334 335 336 338 339 339 340 339 339 339 338 339 339 340 338 336 335 335 334 334 336 336 337 338 338 338 338 338 338 336 335 335 334 334 333 332 331 329 327 326 325 324 322 320 314 302 298 299 298
324 336 338 324 321 324 320 319 324 321 316 318 317 314 316 315 316 317 316 315 317 315 311 310 311 315 315 314 320 324 314 315 319 318 319 319 320 322 323 324 326 328 330 331 333 334 334 334 334 334 335 336 338 339 340 339 340 340 338 339 339 339 339 336 335 335 335 334 335 336 337 338 337 338 338 338 337 337 336 335 334 333 332 331 331 329 328 327 326 325 322 319 313 303 298 299 299
324 335 332 320 318 317 316 319 322 321 319 321 317 315 318 316 313 315 314 313 315 313 312 314 312 313 316 315 315 315 313 315 316 318 319 318 320 322 323 323 324 326 328 330 331 333 334 334 334 334 334 335 337 338 339 339 340 340 339 339 339 339 339 337 335 335 335 334 334 335 336 337 337 338 337 337 336 336 336 335 334 333 332 331 330 329 328 327 327 325 322 318 311 302 298 298 299
324 333 330 319 318 317 317 321 321 319 324 327 321 317 316 317 315 312 311 311 315 315 315 317 313 312 315 315 313 311 312 313 315 318 319 320 321 322 323 323 322 323 326 328 329 332 334 335 335 334 334 334 335 337 338 339 339 339 339 339 339 339 339 338 336 335 335 334 334 334 336 336 336 337 337 336 335 335 335 335 334 333 332 331 330 329 327 326 326 325 323 319 311 301 298 298 299
330 334 324 319 322 322 324 328 324 319 321 322 319 316 315 317 317 314 313 314 316 315 315 316 313 311 312 311 311 311 311 313 315 318 319 320 321 322 323 322 324 325 326 328 328 331 334 336 335 335 335 334 334 336 337 338 339 339 338 339 339 338 339 338 337 336 335 334 334 333 334 335 335 336 336 335 335 335 335 335 334 333 332 331 330 329 326 326 326 325 323 320 311 301 298 298 299
338 332 316 325 334 327 325 328 324 319 317 318 318 316 314 314 314 312 314 316 316 316 315 315 316 316 312 310 310 310 310 312 316 319 320 320 320 321 322 322 324 325 327 328 327 328 331 334 336 336 336 335 335 335 336 337 338 339 338 338 338 338 338 339 338 337 336 335 335 334 333 334 334 335 337 336 335 335 335 335 334 333 332 331 330 328 326 326 326 325 323 321 314 304 299 298 298
330 324 319 335 335 324 324 324 322 319 316 318 318 314 313 315 313 312 313 316 316 316 316 316 317 317 314 311 307 307 308 308 313 317 319 318 318 318 317 318 319 321 324 326 327 327 327 329 332 335 336 336 336 335 335 336 336 337 338 337 338 339 338 338 339 338 337 336 335 334 334 334 334 335 336 337 336 336 335 334 334 333 332 331 329 327 325 326 326 325 324 322 318 308 301 297 298
318 320 327 333 323 319 323 324 324 321 315 316 317 315 315 316 313 313 313 316 317 315 316 316 315 314 314 311 304 303 304 304 306 308 310 311 311 310 310 311 311 313 316 320 323 325 327 328 328 331 334 335 336 336 335 336 336 336 337 337 338 341 339 338 338 338 337 336 335 335 334 334 334 334 334 335 336 337 335 334 334 333 331 330 328 326 326 326 326 325 324 322 320 314 305 298 297
318 322 328 328 320 318 321 324 323 318 314 314 316 316 315 313 312 314 314 315 316 314 314 313 312 309 309 308 304 303 303 302 303 303 304 305 305 306 307 309 309 309 310 312 314 317 322 325 328 329 331 334 335 336 335 336 336 336 336 335 335 339 342 339 337 338 337 336 335 335 335 335 334 334 335 334 334 335 334 333 334 333 331 330 327 326 327 327 326 325 324 322 321 318 310 301 297
319 324 323 324 320 318 320 322 319 315 315 316 317 314 312 313 314 314 314 314 314 313 312 310 308 305 304 305 304 305 305 304 303 303 303 303 304 304 306 308 310 311 311 311 310 311 314 318 324 328 330 332 334 335 335 335 336 336 336 336 334 335 339 339 336 337 338 337 336 335 335 335 335 335 336 336 333 333 333 333 332 332 331 328 327 327 328 327 326 325 324 322 321 319 315 306 298
318 323 323 321 317 319 322 320 319 317 316 317 314 310 311 315 314 313 313 312 312 310 306 304 304 303 304 305 304 304 304 303 303 303 303 303 303 304 305 307 310 312 313 313 312 311 311 313 318 324 329 331 333 335 335 335 335 336 337 338 338 335 335 336 336 336 338 336 334 335 335 334 335 335 334 335 334 333 333 333 332 331 330 328 328 328 327 327 326 325 324 323 321 320 317 312 303
319 322 323 319 316 320 321 318 319 317 315 314 311 311 314 313 311 312 311 311 311 306 302 302 303 304 304 304 304 303 302 302 302 302 303 303 303 305 308 310 311 313 314 315 315 312 311 312 315 319 325 330 333 334 335 335 335 336 336 337 339 338 334 333 333 334 336 335 333 333 332 332 333 333 332 332 333 334 333 332 331 329 328 327 327 326 326 327 326 325 324 323 321 320 318 315 309
319 321 320 317 315 316 316 316 316 315 315 313 311 314 314 310 310 311 311 310 307 305 304 305 306 306 304 303 303 302 302 301 301 301 302 302 303 305 307 309 312 312 314 317 317 315 312 313 315 317 322 327 331 333 334 334 334 334 335 336 336 337 336 334 332 331 333 335 336 334 330 331 333 333 333 330 330 332 332 331 330 329 327 327 328 327 327 326 326 325 324 323 321 320 318 316 313
316 318 317 316 315 314 315 316 314 312 313 313 312 315 313 309 312 313 311 307 306 311 312 307 309 308 303 303 302 301 301 300 301 301 301 301 302 303 303 306 310 311 314 318 320 319 315 312 314 316 319 324 329 333 332 333 333 333 334 335 335 334 334 335 334 333 331 332 334 334 333 333 333 332 333 332 331 330 330 329 329 328 328 329 329 327 326 325 325 325 324 323 321 320 318 316 314
313 314 314 316 316 314 316 317 313 310 312 313 312 314 313 310 312 314 309 305 308 318 316 309 310 307 303 303 301 301 300 300 300 300 300 300 300 301 302 304 306 310 313 316 321 322 321 317 316 318 319 323 328 332 332 332 332 333 333 333 334 334 332 331 331 331 331 331 332 332 333 333 333 333 332 332 332 331 330 330 329 329 329 330 328 326 325 325 325 325 324 323 321 319 318 317 315
313 313 314 317 318 316 314 314 313 311 312 314 312 315 317 316 314 311 307 305 310 317 314 310 308 304 303 303 301 300 300 300 300 299 299 299 300 301 302 304 305 309 311 315 320 323 324 323 322 323 322 324 327 330 331 331 331 332 332 331 330 330 329 329 330 330 330 332 333 332 332 331 332 333 332 331 332 331 331 331 330 329 329 328 327 327 326 326 325 324 323 322 321 319 318 317 316
314 313 313 315 317 319 313 309 312 312 312 313 312 317 326 328 316 308 307 305 312 318 311 308 306 304 303 302 301 301 299 299 299 299 299 299 300 300 302 304 305 308 311 315 320 322 324 325 325 325 325 326 327 329 330 330 330 331 329 329 329 329 330 330 329 330 330 330 331 331 331 331 332 332 331 332 332 330 330 330 329 328 328 328 327 327 326 325 324 324 323 322 321 319 318 317 315
315 311 316 319 315 323 320 311 313 313 312 311 312 318 325 326 313 307 307 304 314 319 308 306 305 303 302 301 301 301 299 299 298 299 299 299 299 300 302 304 306 308 311 314 317 320 322 324 325 325 326 327 327 328 329 330 331 331 331 331 330 330 331 331 330 331 331 330 331 331 331 331 331 331 330 330 330 329 329 329 329 328 328 328 327 326 325 325 324 323 322 322 320 319 317 316 315
324 313 323 326 315 324 325 313 314 314 312 310 312 318 320 321 312 306 305 305 316 318 307 306 305 303 302 301 300 300 300 299 298 298 298 299 299 300 301 302 305 307 310 313 316 319 322 323 325 326 327 327 328 329 329 330 330 331 331 330 329 328 327 326 326 327 327 327 327 327 327 328 328 327 327 327 326 327 327 327 327 328 328 327 326 325 325 324 323 323 322 321 320 319 317 316 315
327 316 322 327 318 320 320 315 314 313 312 310 313 317 318 319 312 307 305 309 320 317 308 306 304 303 301 300 300 299 299 298 298 298 297 298 299 299 300 301 303 306 308 312 315 318 320 322 324 325 325 326 327 327 327 328 327 327 327 326 326 325 323 321 320 322 321 321 321 321 321 323 322 322 323 323 322 322 323 323 323 323 324 323 323 322 322 322 321 321 320 319 319 317 317 316 315
326 317 316 322 318 317 318 318 316 313 314 313 313 314 314 317 314 310 305 308 317 314 306 304 302 302 301 300 300 299 298 298 297 297 297 297 298 299 299 300 303 305 308 311 313 316 317 319 321 322 323 323 324 324 324 324 323 323 322 322 322 321 320 318 319 319 317 316 316 315 316 318 318 318 319 319 318 318 318 319 318 318 319 319 319 318 318 318 318 317 317 317 316 316 316 315 314
328 323 319 321 318 316 318 318 315 314 315 315 315 315 316 317 315 311 305 305 311 308 303 303 302 301 301 299 299 298 298 297 296 296 296 297 298 298 299 300 302 304 307 309 312 315 316 317 319 320 321 321 321 321 321 321 321 320 319 319 318 316 315 315 317 316 314 314 313 312 314 314 314 314 314 315 315 315 315 315 315 315 315 316 315 315 315 315 314 314 314 314 313 313 313 313 312
325 324 323 325 321 318 318 317 315 313 313 315 315 315 317 317 316 313 305 304 306 305 303 303 302 301 300 299 299 298 297 297 296 295 295 296 297 297 298 299 300 302 304 307 310 313 314 315 317 318 317 318 319 319 319 319 318 317 316 316 312 309 309 309 310 310 309 310 309 309 310 309 310 310 310 311 312 312 312 312 312 312 312 313 313 312 312 311 311 311 311 311 311 311 310 310 309
317 317 319 320 319 319 317 316 316 311 312 319 317 315 316 316 316 310 305 306 306 304 304 302 301 301 300 299 299 298 297 296 295 295 295 296 296 297 297 299 300 302 303 304 306 307 308 311 313 313 313 317 318 317 317 316 314 313 312 310 307 305 306 306 306 305 305 305 305 306 306 306 307 307 307 307 308 308 308 309 309 309 309 310 310 310 309 308 308 308 308 308 308 308 308 308 306
313 314 315 317 316 316 314 313 315 312 312 320 318 315 316 315 314 308 306 309 307 304 304 302 301 301 299 299 298 297 297 295 294 294 294 294 295 295 296 297 299 299 299 300 302 302 304 307 308 308 310 313 313 312 314 313 310 310 308 304 304 304 304 304 303 302 303 303 303 303 303 303 304 304 304 304 304 304 304 305 305 306 307 307 307 307 307 306 306 306 305 305 305 304 305 304 303
312 313 313 315 316 317 318 315 314 313 313 319 319 315 315 314 309 305 305 306 303 301 302 301 300 299 298 298 297 296 296 295 294 293 293 293 293 294 294 295 296 296 297 298 300 302 303 304 305 306 308 308 308 308 309 308 307 307 306 303 304 303 300 301 301 300 301 302 302 301 301 301 301 301 301 301 301 301 301 302 302 303 303 304 304 304 304 304 304 304 303 302 302 302 302 301 301
313 314 313 316 317 317 322 320 315 314 311 315 318 314 315 313 307 305 303 302 301 300 300 299 299 298 297 296 296 295 295 295 294 293 292 292 292 293 293 293 294 295 296 297 298 300 301 302 303 304 304 305 305 305 305 304 303 303 303 301 301 301 299 300 300 299 300 300 299 299 299 299 299 299 299 300 300 300 300 300 300 300 300 300 301 301 301 301 301 302 302 302 302 302 301 300 300
316 316 314 316 317 317 321 319 316 318 316 313 313 317 322 318 312 309 304 302 302 301 300 300 298 298 297 296 295 295 294 294 293 293 292 291 291 292 292 292 293 293 294 294 296 297 298 300 301 302 302 303 303 303 303 303 302 302 301 301 301 301 299 299 298 295 295 296 295 295 296 296 297 298 298 298 299 299 299 299 299 299 298 299 299 299 298 298 299 299 300 300 300 300 299 299 299
318 320 316 315 317 318 318 316 315 321 323 316 311 322 334 327 320 313 305 304 304 301 301 300 298 298 297 297 296 295 294 293 292 292 291 291 291 291 291 291 291 291 292 292 294 296 297 299 300 301 301 301 302 302 302 303 303 302 302 301 298 295 293 292 291 290 290 291 291 291 292 293 294 295 295 296 296 297 298 298 298 298 298 298 298 298 298 297 297 297 297 298 298 298 298 298 298
320 321 318 315 314 315 317 316 317 323 325 315 309 319 330 329 327 317 307 306 305 302 302 300 299 298 297 297 296 295 294 294 292 291 290 290 290 290 290 290 290 290 290 291 292 294 296 298 299 300 300 300 300 301 301 302 301 300 299 296 292 290 288 287 288 288 288 288 289 289 289 289 290 290 291 291 292 293 294 294 295 295 296 295 295 296 295 295 296 296 296 296 296 296 297 297 297
324 319 318 318 316 317 320 318 319 323 321 318 316 316 319 324 324 313 307 309 306 302 302 300 299 299 297 297 296 295 295 294 293 292 290 289 289 289 289 289 289 289 289 290 291 292 293 295 297 297 297 297 297 298 298 299 298 296 294 292 290 289 288 288 288 288 288 288 288 288 288 288 288 288 288 288 288 289 289 289 290 290 290 290 290 290 290 290 291 292 293 294 295 296 296 296 296
323 315 315 319 318 320 322 320 320 318 315 322 325 316 316 325 323 309 306 310 310 306 304 301 300 299 297 297 296 295 295 293 292 292 290 289 289 289 288 288 288 288 288 289 289 290 291 292 294 294 293 293 293 294 295 294 294 292 291 290 289 288 288 288 288 288 288 288 288 287 287 287 287 287 287 287 287 287 287 287 287 287 287 287 287 287 287 288 288 288 289 289 291 292 293 293 294
315 311 315 317 317 320 321 322 322 317 316 324 326 319 319 328 328 315 309 313 315 310 305 301 300 299 298 297 296 295 295 294 291 290 289 289 288 288 288 288 288 288 288 288 289 289 290 291 292 291 290 290 291 291 291 291 290 290 289 289 288 288 288 288 288 288 288 288 288 287 287 287 287 287 287 287 287 287 287 287 287 286 286 286 287 287 287 287 287 287 287 287 287 288 288 289 289
310 314 322 320 319 320 321 322 320 318 322 324 320 318 318 323 330 323 314 314 314 311 306 301 300 299 298 297 296 295 295 294 292 289 288 289 288 288 288 288 288 288 288 288 288 289 289 290 290 290 289 289 289 289 289 289 289 289 289 289 288 288 288 288 288 287 287 287 287 286 287 286 286 286 286 286 286 286 286 286 286 286 286 286 286 286 286 286 286 286 286 286 286 286 286 287 287
313 321 325 322 321 321 321 323 321 322 329 323 314 314 315 321 329 322 314 310 307 308 307 302 300 300 298 298 297 296 295 294 293 291 289 288 288 288 288 288 288 288 288 288 288 288 288 289 289 289 288 289 289 289 289 289 289 289 288 288 288 288 288 288 287 287 286 286 286 286 286 286 286 286 286 286 286 286 286 286 286 286 286 286 285 285 285 285 285 286 286 286 286 286 286 286 286
318 322 323 323 324 325 326 326 322 324 325 316 312 315 315 321 324 317 314 309 303 304 304 300 300 299 298 298 297 296 295 295 294 292 290 288 288 288 288 288 288 288 288 288 288 288 288 288 289 289 288 288 289 289 289 289 288 288 288 288 288 288 287 287 286 286 286 286 285 285 285 285 285 285 285 285 284 285 285 285 285 285 285 285 285 285 285 285 285 285 285 285 285 285 285 285 285
317 320 323 324 325 328 333 328 321 321 320 313 311 315 317 321 319 313 311 307 300 300 301 300 299 298 297 297 297 296 296 295 294 293 290 288 288 288 287 288 287 288 288 288 288 288 288 288 288 289 288 288 289 289 289 288 288 288 288 288 288 287 287 286 286 286 285 285 285 285 284 284 284 284 284 283 283 284 284 284 284 283 284 284 284 284 284 284 284 284 284 285 284 285 285 285 285
314 318 320 322 326 330 332 330 326 324 321 315 311 315 324 325 315 305 303 301 298 299 299 299 299 298 297 297 296 296 295 294 294 293 290 288 288 288 288 288 287 287 288 288 288 288 288 288 289 289 288 288 289 289 289 289 288 288 288 288 288 287 287 286 286 285 285 285 285 284 284 284 284 283 283 283 283 284 284 284 284 283 283 283 283 284 284 284 284 284 284 284 284 284 284 284 284
314 314 316 320 324 327 323 319 319 319 319 319 316 319 324 318 307 300 300 300 298 298 298 298 299 298 297 297 296 296 295 294 294 293 291 288 288 288 288 288 288 288 288 288 288 288 288 289 289 289 289 289 289 289 289 289 288 288 288 288 288 288 287 286 286 285 284 284 284 284 284 283 283 283 283 283 283 283 283 284 284 284 284 284 284 284 284 284 284 284 284 284 284 284 283 283 284
315 312 319 318 315 323 324 313 309 312 317 320 319 321 318 311 307 302 300 301 299 297 298 298 298 298 297 297 295 295 295 294 294 293 290 288 289 288 288 288 288 288 288 288 288 288 289 289 289 289 289 289 289 289 289 289 289 289 288 288 288 288 287 287 286 285 285 284 284 284 284 283 283 283 283 283 283 283 283 283 283 283 283 283 284 284 284 284 284 284 284 283 283 283 283 283 283
318 317 320 315 311 320 323 318 316 316 319 320 317 319 318 316 316 306 300 303 301 298 298 298 297 298 297 296 295 295 295 294 294 292 289 288 289 289 288 288 288 288 288 288 288 288 289 289 289 289 289 289 289 289 289 289 289 289 288 288 288 288 288 287 286 285 285 285 284 284 284 283 283 283 283 283 283 283 283 283 283 283 283 283 283 283 283 283 283 283 283 283 283 282 282 283 283
316 318 315 314 317 321 318 319 323 321 321 323 317 313 314 317 318 314 310 309 303 299 299 298 298 297 297 296 295 295 295 294 294 292 289 288 289 289 289 289 288 288 288 288 288 289 289 289 289 289 289 289 289 288 289 289 289 289 288 288 288 288 288 287 286 286 285 285 284 284 284 283 283 283 283 283 283 283 283 283 283 283 283 283 282 282 282 282 282 282 282 282 281 281 281 281 281
310 311 310 312 318 320 318 318 320 320 321 323 318 314 317 318 316 320 320 312 302 300 299 298 298 297 296 296 295 294 294 293 292 292 290 288 289 290 289 289 289 289 288 288 289 289 289 289 289 289 289 289 289 288 288 288 288 288 288 288 288 288 288 287 287 286 286 285 285 284 284 284 283 283 283 283 283 283 283 283 283 283 283 283 283 283 282 282 282 282 281 281 281 281 280 280 280
312 313 313 314 314 315 318 315 315 319 322 324 322 317 320 320 314 318 320 309 301 300 299 298 298 297 296 296 295 294 293 292 291 291 290 288 289 290 290 290 289 289 289 289 289 289 289 289 289 289 289 289 289 288 288 288 288 289 289 289 289 288 288 287 287 286 286 285 285 285 284 284 283 283 283 283 283 283 283 283 283 283 283 283 283 283 283 283 283 282 282 282 282 281 281 281 281
314 315 315 316 315 315 318 316 314 316 318 323 322 317 319 319 309 311 314 307 300 299 299 299 298 297 297 296 295 294 293 292 291 290 289 289 289 290 290 290 290 289 289 289 289 289 289 289 289 289 289 289 289 289 289 289 289 289 289 289 288 288 287 286 286 285 284 284 284 283 283 283 282 282 282 282 282 282 282 282 282 282 282 282 282 282 282 282 281 281 281 281 281 281 281 281 281
Wind_Speed
10 10 10 9 9 6 3 4 2 2 4 3 1 1 2 3 1 1 3 3 2 2 3 2 2 3 1 2 4 5 5 5 5 3 0 5 2 2 14 10 4 11 22 24 26 29 27 25 23 22 21 19 19 18 17 16 15 15 14 12 11 10 9 9 11 11 12 11 10 10 9 10 9 9 8 8 8 7 8 7 7 6 6 7 7 7 7 6 5 5 4 4 3 3 3 3 3
10 10 10 8 7 4 1 3 3 3 5 3 1 2 3 2 1 3 5 4 4 3 2 3 1 2 2 2 2 2 2 5 5 2 3 5 4 4 13 11 5 10 21 24 25 29 28 27 24 23 22 21 20 19 18 17 16 14 13 12 11 10 9 10 11 11 11 11 10 10 9 10 10 9 8 8 7 7 7 7 6 6 6 6 6 7 6 5 3 2 1 1 1 1 2 3 3
10 9 10 7 3 4 1 4 3 1 5 2 3 4 2 1 4 7 7 7 7 4 3 2 0 1 3 4 1 3 2 4 3 3 4 5 3 3 11 12 7 9 20 22 24 28 28 27 25 24 23 22 21 19 18 18 17 15 14 12 11 10 9 10 11 12 11 10 10 9 9 9 9 9 8 8 7 7 7 6 5 5 5 6 6 6 5 3 3 3 3 3 4 4 4 4 4
9 8 10 5 1 4 4 4 2 4 3 2 2 3 2 3 7 7 7 7 6 3 2 1 0 2 3 2 1 2 3 4 3 4 2 3 1 1 10 14 8 11 19 21 22 27 28 28 26 25 24 23 22 20 19 18 18 16 15 13 12 10 9 10 10 11 11 10 10 8 8 7 7 7 7 8 8 6 6 6 5 5 5 6 6 5 3 3 4 6 8 8 8 7 6 6 5
7 5 8 3 3 2 3 3 2 4 2 4 1 3 4 6 6 6 7 7 5 2 1 2 1 2 2 1 2 1 3 2 3 5 3 4 2 2 9 14 10 12 18 20 21 25 27 27 26 25 25 24 22 21 20 19 19 18 16 15 14 12 11 11 11 11 11 10 10 8 7 7 6 5 5 7 8 6 6 6 5 5 6 7 6 3 4 5 6 7 10 9 9 10 8 6 6
7 3 7 7 3 1 2 3 2 1 4 5 2 4 5 6 6 5 7 8 3 2 2 1 0 1 1 2 2 3 3 1 2 4 4 3 3 3 9 13 12 11 16 20 20 23 25 27 27 26 25 25 23 22 21 20 19 18 17 17 16 14 13 13 12 11 11 10 9 8 7 7 6 6 6 6 7 7 6 5 5 6 6 5 3 3 5 4 5 6 8 9 10 12 10 7 6
8 3 4 6 2 2 3 3 3 1 2 4 2 4 5 5 5 3 6 4 1 1 1 0 1 1 1 3 2 4 4 2 2 2 4 4 3 3 9 12 12 11 15 19 19 21 23 26 27 26 26 25 24 23 22 21 20 19 18 17 16 15 14 14 14 13 13 11 9 8 7 7 6 7 7 6 7 7 7 6 6 6 5 3 1 1 4 2 2 5 8 11 14 13 11 8 6
9 4 0 4 2 4 4 2 2 2 0 3 3 5 6 5 4 1 4 1 0 2 2 2 0 1 2 3 2 4 3 5 5 5 6 5 5 4 9 11 11 11 14 18 19 20 22 25 27 27 26 25 25 24 23 22 20 19 18 18 16 15 15 15 15 14 14 12 10 9 8 7 7 8 8 7 7 8 7 6 5 5 4 2 2 3 5 3 4 7 10 13 15 12 10 7 5
8 5 1 3 2 3 3 1 2 3 3 4 4 6 5 3 4 1 3 3 1 2 3 3 0 0 3 4 3 4 2 4 6 6 6 5 5 5 9 10 9 10 13 17 18 19 21 24 26 27 27 26 25 24 23 21 21 20 18 18 17 15 16 16 16 16 15 13 11 10 9 8 8 8 9 8 8 7 6 5 4 4 3 2 4 6 8 7 7 9 11 13 12 9 7 5 3
5 5 2 3 3 3 3 1 2 2 4 5 5 7 5 2 2 1 2 3 1 1 5 1 1 1 2 2 4 3 3 5 5 4 5 5 6 6 9 10 9 9 12 15 17 18 20 23 26 27 27 27 26 25 23 21 21 21 19 18 17 16 16 16 16 16 15 13 12 12 10 9 9 9 9 9 9 7 5 4 3 2 1 3 6 7 8 8 8 9 10 10 9 6 5 3 1
3 4 2 4 4 2 1 2 4 4 6 5 4 7 5 2 1 0 1 3 1 0 4 1 1 1 1 3 3 3 6 7 4 2 3 6 6 7 8 9 9 9 11 12 14 16 18 21 24 26 27 26 26 25 24 22 22 21 20 18 17 17 16 16 16 17 16 14 13 12 11 10 9 9 10 9 10 8 5 3 2 2 2 4 7 8 7 6 6 9 10 11 9 5 3 2 1
2 3 4 5 3 1 2 2 5 6 7 4 3 3 2 3 1 2 2 3 3 4 4 1 0 2 2 4 4 5 8 6 1 2 3 5 6 7 8 9 9 9 11 11 13 14 16 19 22 26 26 26 25 25 25 24 23 22 22 19 18 18 16 16 16 16 16 16 14 13 12 11 10 10 10 10 9 8 6 4 3 3 3 5 7 8 8 6 7 11 12 12 10 6 3 1 1
3 1 4 3 2 3 2 2 4 5 5 2 1 3 1 2 1 4 2 1 2 4 4 4 2 2 0 3 4 6 8 6 2 3 4 6 6 7 8 10 9 9 11 12 13 13 15 17 20 24 26 26 25 25 26 25 24 23 23 21 19 18 17 17 17 16 17 17 15 14 13 12 11 11 11 10 10 9 7 6 4 4 3 6 8 8 8 8 10 13 13 13 11 6 4 2 1
2 3 4 2 1 3 3 0 2 0 2 3 2 3 2 2 4 4 4 1 4 2 2 2 4 2 1 3 5 4 5 7 1 4 5 7 8 8 9 10 11 11 11 12 13 14 14 15 18 22 25 27 26 26 26 25 24 23 23 23 21 19 19 18 18 17 17 18 17 15 15 13 12 12 11 11 10 9 8 6 5 5 5 7 9 8 9 10 12 13 13 13 11 7 4 2 2
3 2 5 3 2 0 3 1 1 4 2 3 2 2 3 2 3 3 4 1 4 4 2 2 3 0 2 2 5 6 5 8 3 4 5 7 8 9 10 11 12 12 12 12 13 15 15 15 16 19 24 27 27 26 26 26 25 23 23 23 22 20 19 19 19 19 18 19 18 17 16 15 13 12 12 11 11 9 9 8 8 7 8 8 9 10 10 11 13 13 12 12 10 7 5 3 2
3 4 5 3 1 1 2 2 3 3 3 4 3 2 3 5 2 1 4 3 2 3 2 3 2 1 2 3 6 6 7 10 7 6 6 7 8 9 10 11 13 14 14 14 14 16 16 16 17 18 21 25 27 27 27 26 26 25 23 23 23 21 20 20 19 20 19 19 19 18 17 15 14 13 12 11 11 10 10 10 9 7 8 9 10 10 10 12 13 13 13 12 10 7 5 4 3
3 4 4 2 1 1 3 3 3 2 4 6 5 5 4 7 3 1 1 4 1 4 3 5 3 1 5 5 7 10 13 13 10 8 7 7 7 9 11 12 13 15 16 15 15 16 17 17 18 18 20 23 26 27 27 27 26 25 24 23 23 22 21 20 20 20 20 19 19 19 18 17 14 12 12 12 12 12 11 11 10 7 8 10 10 9 11 13 14 14 13 13 10 6 6 6 4
4 4 3 0 3 3 5 6 6 3 3 5 4 5 1 6 6 4 2 3 3 4 4 5 6 5 6 7 10 14 15 13 10 8 8 7 7 8 10 10 11 13 14 14 15 16 18 19 19 19 20 21 24 26 27 27 26 25 24 24 23 23 22 21 21 20 20 19 19 19 19 18 15 13 12 13 13 13 12 12 11 10 10 10 9 9 11 13 14 14 14 13 10 6 7 6 5
4 3 2 2 6 5 5 6 5 3 2 5 4 3 1 4 4 4 5 7 6 6 6 4 6 9 8 8 10 14 14 13 9 8 9 8 7 8 10 9 9 11 11 13 15 16 18 19 20 21 21 20 22 25 26 27 27 25 25 24 23 23 22 22 22 21 20 19 19 18 19 19 17 14 13 14 14 13 13 13 11 10 10 9 8 11 12 13 15 15 14 15 12 7 8 7 5
2 4 1 5 6 4 4 5 6 5 1 4 5 2 1 5 4 1 3 8 7 5 6 3 5 8 9 8 11 15 15 14 12 9 10 11 12 12 13 15 14 14 13 14 16 17 19 20 21 22 22 21 22 24 25 26 26 25 25 24 24 24 24 23 23 22 20 19 19 19 19 19 18 15 14 14 14 14 13 13 12 10 9 9 11 13 12 13 14 15 15 16 14 10 8 8 6
2 3 3 5 3 2 4 6 6 5 2 2 2 3 5 5 1 1 1 5 9 7 5 5 5 7 9 9 11 15 15 16 17 16 15 14 15 14 14 14 15 16 16 18 18 18 19 21 22 23 23 23 22 23 24 25 25 25 25 24 24 24 23 23 23 22 21 20 19 18 18 18 17 15 15 15 15 15 13 14 14 12 11 11 12 13 12 14 15 15 17 17 17 14 10 9 7
1 3 5 5 3 2 5 4 5 3 2 2 2 5 6 3 1 3 4 3 8 3 1 5 4 5 5 7 9 12 15 15 17 19 18 17 17 17 17 17 15 15 14 17 19 18 18 20 22 23 24 24 23 23 23 24 24 24 24 24 24 22 21 22 22 22 23 21 20 19 18 18 17 15 16 16 15 15 14 15 15 13 11 11 13 14 12 14 15 16 17 17 17 16 12 11 9
1 3 2 3 4 3 5 1 2 2 2 3 3 3 3 3 5 3 6 8 8 3 3 2 3 5 7 10 8 10 12 11 14 16 17 18 19 19 20 21 19 18 16 15 16 16 17 18 20 23 24 24 24 23 23 23 23 23 23 22 23 21 20 22 23 23 23 22 21 20 18 18 18 16 16 18 18 16 16 15 15 14 12 13 15 13 13 14 15 16 17 17 17 17 15 12 11
2 3 4 2 4 5 5 3 3 0 2 6 2 3 4 6 6 2 4 5 5 6 5 7 10 13 13 12 9 9 10 12 13 15 16 18 19 19 20 22 21 20 18 17 15 13 14 15 18 21 23 24 23 22 23 23 23 23 22 21 20 20 19 19 22 24 24 23 21 20 19 19 18 16 16 19 20 15 15 16 15 15 12 15 15 13 13 15 16 16 17 17 17 17 16 14 13
2 4 3 2 2 6 6 5 6 5 6 5 1 4 8 8 3 3 6 4 5 5 8 9 10 13 12 11 10 10 11 13 15 16 18 20 20 21 23 24 23 23 23 20 17 13 9 10 13 18 21 23 23 22 22 22 23 22 22 21 19 20 19 16 17 19 22 24 23 21 20 19 20 21 18 16 16 13 14 16 16 14 14 17 16 15 15 16 17 17 16 17 17 17 17 15 14
4 5 3 3 5 6 6 6 6 4 4 2 2 8 8 5 1 2 5 4 4 4 9 6 8 11 10 9 9 9 10 13 16 16 18 21 24 26 26 26 26 25 25 22 18 14 7 6 8 13 17 20 22 21 21 21 22 21 21 20 19 19 18 16 14 16 17 20 24 24 23 22 21 21 20 17 16 14 14 15 16 16 17 19 18 16 16 17 17 17 16 17 17 18 17 16 15
4 3 3 5 6 6 4 7 6 2 4 4 5 10 6 4 2 1 4 6 4 6 9 7 9 11 9 9 8 10 11 13 16 17 19 24 26 27 27 27 27 26 25 23 20 16 9 4 5 8 12 16 19 20 19 19 19 19 18 18 18 18 17 15 12 12 16 16 18 22 22 21 18 17 19 20 19 15 14 17 18 17 18 19 16 14 15 16 17 16 16 16 17 17 17 17 16
2 0 5 6 7 7 5 8 6 1 3 4 7 6 5 3 1 2 5 7 4 8 9 9 11 9 8 8 7 9 11 14 18 19 19 21 21 23 24 26 26 25 25 24 21 17 12 6 2 3 6 11 15 17 17 16 16 16 16 16 16 16 17 16 13 12 15 17 19 21 19 17 15 16 17 18 19 17 16 18 18 16 17 15 13 14 16 17 17 16 16 16 17 17 17 17 17
1 3 5 8 8 7 6 4 4 0 2 4 6 3 6 3 3 2 4 4 6 10 8 9 9 7 7 7 6 8 11 15 18 19 18 18 19 21 22 23 24 24 24 24 22 19 16 12 8 5 1 4 10 13 13 13 13 12 12 11 10 11 10 9 9 10 12 15 17 18 18 16 14 16 16 16 18 20 18 16 13 12 12 13 14 16 17 17 17 16 16 17 17 17 18 18 18
2 3 2 6 7 7 5 0 3 2 1 2 3 2 6 6 4 3 4 3 6 9 7 7 6 6 6 6 6 7 11 15 16 18 19 20 21 21 22 23 23 24 24 25 25 22 19 16 14 12 9 5 5 7 8 8 8 7 6 5 5 5 6 6 5 5 8 11 11 12 14 14 14 16 18 17 18 20 16 11 9 8 9 12 15 16 15 15 15 16 16 16 16 17 18 18 18
2 2 2 3 2 5 6 1 1 2 1 2 3 2 7 9 3 3 7 2 6 7 6 5 6 6 6 6 7 6 9 14 16 19 22 22 22 22 23 24 24 24 25 26 26 24 21 19 17 16 13 10 8 6 6 6 5 5 5 6 5 4 6 9 7 7 8 9 11 13 14 14 14 14 15 14 14 15 12 9 10 9 9 12 13 13 13 14 14 14 15 15 15 16 17 18 18
2 1 3 3 2 5 9 3 2 1 2 4 4 3 6 9 2 5 8 3 8 8 5 6 6 7 6 6 7 6 7 13 18 22 23 23 22 23 23 24 25 25 26 26 26 26 25 23 20 19 17 14 12 11 10 9 7 6 5 4 3 5 5 5 5 3 1 1 4 6 7 9 9 10 10 9 9 10 10 11 12 11 11 12 12 12 12 12 13 14 14 14 15 16 17 18 18
3 0 4 3 2 3 7 4 1 1 1 4 2 2 4 7 2 6 10 7 9 9 6 7 7 6 6 5 6 6 6 10 16 21 24 23 22 22 23 23 24 25 26 27 27 28 28 26 25 24 22 20 18 16 15 15 14 13 12 11 11 13 17 20 21 19 19 17 14 13 9 5 4 2 2 4 5 6 7 8 10 10 10 10 11 11 11 11 11 12 12 13 14 15 16 17 18
3 1 3 4 3 2 4 4 4 5 3 2 1 2 5 9 5 8 11 8 9 8 6 6 6 6 6 5 6 6 7 7 10 18 22 22 22 22 23 24 25 26 27 27 28 29 29 29 28 28 27 26 25 24 24 24 23 23 24 23 21 21 23 24 24 25 27 27 26 25 22 20 17 15 12 8 7 7 7 7 7 7 6 6 6 7 7 8 9 9 11 12 13 15 16 17 19
4 2 3 3 3 3 4 5 3 5 5 4 3 4 8 11 7 8 9 7 9 7 5 5 5 6 5 5 6 6 7 7 9 16 20 20 22 23 23 25 26 27 28 28 28 29 30 30 30 30 30 30 30 30 30 30 30 30 29 29 29 29 29 28 26 26 27 27 27 27 26 25 23 22 20 17 16 15 15 14 13 12 11 8 6 6 6 7 8 9 10 11 13 14 16 17 19
6 5 4 4 4 4 5 6 4 1 3 5 6 7 8 10 7 6 7 6 8 6 5 5 5 5 5 5 5 5 6 6 10 16 19 21 22 22 23 25 27 28 29 29 29 29 30 30 30 30 30 30 30 30 31 30 31 31 31 31 32 33 33 33 31 30 29 28 27 27 26 26 24 23 23 21 20 19 18 18 17 16 15 12 11 11 10 10 10 10 10 11 11 12 13 16 17
5 3 3 4 4 5 5 5 5 0 1 6 6 5 7 8 5 6 5 5 7 6 6 5 5 5 5 5 5 6 5 6 11 16 20 21 22 23 24 25 27 29 30 30 31 31 31 30 31 31 29 28 28 28 29 30 30 31 32 32 33 33 33 33 33 32 31 30 28 27 26 25 24 23 23 22 21 20 19 18 18 17 16 15 14 14 12 11 11 11 10 10 10 11 12 13 15
3 3 3 4 4 6 6 5 5 1 2 6 3 3 8 5 3 5 4 5 6 5 4 4 5 5 4 5 6 5 4 6 11 16 19 22 22 23 24 26 28 28 28 30 30 31 31 32 32 32 30 29 29 28 28 29 30 31 32 32 33 33 32 32 33 33 31 29 28 28 27 26 24 24 23 22 22 21 20 20 19 18 17 16 15 14 13 12 12 12 11 11 10 10 11 11 14
3 2 2 5 4 4 6 4 5 2 3 4 4 4 8 2 4 4 5 5 4 4 4 4 4 4 5 5 5 5 5 6 8 12 17 20 21 22 23 25 26 26 27 28 29 30 31 32 32 32 31 31 31 30 30 31 31 30 31 31 32 33 34 33 33 32 30 28 28 28 27 26 25 24 24 23 23 23 23 22 22 20 19 17 15 15 15 14 14 13 12 12 11 10 11 10 12
4 4 3 5 3 0 4 4 4 2 1 2 3 5 6 0 4 4 4 4 4 4 5 5 4 4 4 4 4 5 5 6 7 8 13 17 19 20 22 24 25 26 27 28 29 30 31 31 31 31 31 31 30 31 32 33 33 33 33 33 33 33 33 31 31 31 30 29 30 29 28 27 25 25 25 24 24 24 24 23 23 22 21 20 18 18 19 18 17 15 14 13 12 12 11 10 11
3 5 6 5 4 5 6 3 4 3 3 2 2 5 5 1 1 1 2 3 4 4 5 6 5 4 4 4 5 5 5 5 5 6 9 13 16 17 20 22 24 26 26 27 28 29 31 31 31 31 30 30 29 29 29 29 30 30 30 30 30 30 31 32 32 33 33 33 33 32 31 29 27 27 26 25 25 24 24 23 23 22 22 22 22 22 21 21 20 18 17 15 14 13 12 11 10
4 5 10 10 7 7 6 2 4 3 3 3 3 3 5 4 1 4 4 2 3 3 4 5 4 4 4 4 5 4 5 4 5 6 7 10 12 15 19 21 22 23 24 25 27 30 32 32 32 32 32 31 30 29 26 26 28 27 27 29 30 32 33 32 32 33 34 35 34 34 33 31 30 30 29 28 27 26 25 24 23 22 23 23 22 21 21 21 21 20 19 17 17 15 13 12 12
2 5 8 10 7 5 4 2 2 1 2 2 3 1 4 5 4 3 5 4 3 3 4 4 3 4 4 3 4 3 4 4 4 6 8 9 11 13 17 18 18 20 22 26 29 31 33 34 35 34 34 33 32 31 29 29 31 32 33 35 35 35 33 30 31 33 33 34 33 33 33 32 32 32 31 31 29 28 27 26 25 24 24 24 23 22 23 22 21 20 19 18 18 17 16 15 15
3 4 4 6 7 6 6 6 4 3 2 3 3 1 3 5 4 2 5 5 3 3 3 3 2 2 2 2 3 3 3 3 4 4 6 8 10 12 15 15 16 18 22 27 31 33 35 36 37 37 36 36 34 33 33 33 35 36 37 38 37 35 33 31 31 32 32 31 32 32 32 32 31 31 31 31 30 29 28 28 27 26 26 25 25 25 25 24 23 22 20 19 18 17 17 17 16
4 2 6 6 6 6 4 5 3 1 2 4 4 1 1 5 4 2 2 3 2 2 3 3 3 2 2 2 2 3 3 3 3 3 4 7 10 12 14 14 16 18 23 28 31 33 35 37 37 38 37 37 36 35 35 35 36 37 37 38 37 34 33 32 31 30 30 30 30 30 30 30 30 30 30 29 29 28 28 27 26 26 26 25 24 24 23 23 23 23 23 22 20 19 18 17 17
3 5 6 5 5 5 4 5 3 2 1 4 6 3 2 5 5 2 1 2 4 4 4 4 4 3 3 2 2 3 3 3 3 4 5 8 10 11 14 15 16 19 23 27 30 32 34 35 36 37 37 36 35 35 35 35 35 35 35 35 34 32 31 30 29 29 29 28 29 29 28 28 28 28 28 27 27 26 26 25 25 25 24 23 23 22 22 21 21 21 21 20 20 19 19 18 17
5 6 6 6 6 5 4 2 3 2 2 6 5 3 3 3 5 3 3 2 4 5 4 4 4 4 4 3 3 3 3 2 2 4 6 9 11 12 14 17 17 19 23 27 29 31 33 34 35 36 35 34 34 33 34 34 33 33 33 32 31 30 29 29 29 29 28 27 28 27 26 26 26 26 26 25 25 24 24 23 23 23 22 22 22 22 21 20 20 19 18 18 18 18 18 17 17
5 4 4 4 3 4 4 4 3 1 5 5 4 2 4 4 5 3 3 2 2 4 6 8 8 6 5 4 3 3 3 2 2 3 5 8 11 12 14 16 17 18 22 25 27 29 31 32 34 35 34 33 33 32 32 32 32 31 31 30 30 28 28 28 29 28 27 26 26 25 24 24 24 24 24 24 24 24 23 22 22 21 21 22 22 21 21 20 19 18 18 18 17 17 17 17 17
4 4 5 3 2 3 3 3 1 3 5 3 2 1 3 5 6 3 3 3 3 3 4 9 10 9 7 6 5 4 3 3 3 3 3 6 9 10 13 14 15 18 21 24 26 28 29 30 32 33 32 31 31 30 31 31 30 30 29 28 28 27 27 27 27 27 25 25 24 23 23 23 23 24 24 24 24 23 23 23 23 22 22 22 22 22 21 21 21 20 20 20 19 19 18 18 18
4 5 4 3 2 2 2 3 2 3 4 2 1 1 1 5 4 3 3 4 4 4 5 7 10 10 8 6 5 4 4 4 3 3 3 5 7 9 11 12 14 17 19 22 24 26 28 29 30 32 31 29 29 29 29 29 29 28 27 27 26 25 25 25 25 24 23 23 23 23 23 23 23 23 23 23 23 23 23 23 23 23 23 23 23 23 23 23 23 23 22 22 21 21 20 20 20
3 4 5 4 5 3 4 4 3 4 3 2 2 0 3 4 2 3 4 4 4 3 3 6 7 6 6 5 5 5 4 4 3 3 4 6 8 9 10 12 13 16 19 21 23 25 27 28 28 30 29 27 27 27 27 27 27 26 25 25 24 23 23 23 22 21 21 21 21 21 21 21 21 21 21 22 22 22 23 23 23 24 24 24 24 25 25 25 25 25 24 24 23 23 23 23 22
2 3 4 3 4 4 2 3 4 2 2 3 2 2 4 4 1 2 2 2 3 2 4 8 7 5 6 5 5 5 5 4 4 4 4 7 9 10 11 12 14 16 18 20 22 24 26 27 27 27 27 25 25 25 24 24 24 23 23 23 22 21 21 21 20 20 19 19 19 19 20 19 19 20 20 21 21 22 22 23 23 24 24 24 25 25 25 26 26 26 26 26 25 25 25 25 24
2 2 3 4 4 6 3 2 1 3 2 4 2 2 3 0 1 3 3 3 3 3 5 8 8 7 7 7 6 5 5 5 5 5 6 9 10 10 11 13 14 17 19 20 22 23 25 26 26 26 25 24 23 23 22 22 21 21 20 19 19 19 19 19 19 19 18 18 18 19 19 19 20 21 21 22 22 22 23 23 24 24 24 24 24 25 25 25 26 26 26 26 26 26 26 26 25
5 2 5 3 2 4 3 1 2 3 3 4 1 3 3 1 1 2 2 1 2 4 5 6 7 7 8 8 7 6 7 6 6 6 8 10 11 12 13 13 15 17 19 21 22 22 23 23 23 24 23 22 21 20 20 19 19 18 17 16 16 16 16 17 17 17 17 17 18 18 19 20 21 22 22 22 23 23 24 24 25 25 25 25 25 26 26 26 27 27 27 27 27 27 27 27 27
5 4 3 3 2 1 2 2 1 1 3 4 2 2 3 4 4 2 4 7 8 7 7 8 10 11 10 9 8 8 7 6 6 6 7 10 13 14 14 15 15 17 19 20 21 21 22 21 21 21 20 19 18 17 17 16 15 15 14 13 13 13 15 16 17 17 17 18 19 19 20 21 22 22 23 23 24 24 25 25 26 26 26 27 27 27 28 28 28 28 28 29 28 28 28 28 28
3 1 1 2 2 3 2 2 2 2 2 3 4 2 2 5 5 7 10 11 12 11 10 11 13 13 11 9 9 8 7 7 7 6 6 10 14 15 16 16 16 18 18 19 21 20 20 20 19 19 18 17 16 15 14 13 12 11 11 11 12 13 15 16 17 17 18 18 19 19 20 21 22 22 23 24 24 25 25 26 26 27 27 27 28 28 29 29 29 29 30 31 31 31 31 31 31
2 2 2 1 1 2 1 1 2 3 3 2 3 4 5 4 3 7 9 9 13 15 13 13 13 12 11 9 9 8 8 8 8 6 7 11 15 16 17 16 17 18 18 19 20 19 19 18 17 17 16 15 14 12 11 10 9 8 8 9 11 12 13 14 15 16 16 16 16 17 18 19 20 21 22 23 23 23 23 24 24 24 25 26 26 27 27 28 29 29 30 30 31 32 33 34 34
4 4 5 5 4 3 2 4 1 2 2 4 3 6 7 4 2 4 4 6 10 13 12 11 11 12 11 10 9 9 8 8 8 7 8 12 15 18 18 17 18 18 19 19 19 18 18 17 16 15 13 12 11 9 8 7 5 5 6 7 9 11 12 14 15 15 15 15 16 17 18 19 19 20 21 21 21 22 22 22 23 23 24 24 25 25 26 27 28 29 29 29 30 30 32 33 33
Wind_Direction
337 339 335 330 328 323 341 51 72 329 72 77 322 50 243 219 224 278 272 285 313 249 224 276 152 128 123 161 193 199 179 171 168 120 231 235 313 208 183 179 167 176 183 181 178 182 183 180 182 184 184 185 186 186 188 190 188 193 191 188 187 184 181 166 156 154 151 150 150 149 150 149 144 141 139 138 137 133 135 135 128 128 124 117 111 104 90 83 88 92 90 85 77 58 43 30 21
337 338 341 332 335 359 297 73 91 338 53 74 284 166 260 294 333 232 224 222 215 263 300 277 194 82 63 110 148 142 226 222 190 174 273 273 316 225 185 179 176 175 182 184 180 182 184 182 183 186 187 187 189 189 191 193 192 196 194 192 190 186 186 170 161 159 155 155 155 154 156 152 147 145 144 142 137 134 138 135 127 128 122 122 115 96 82 80 72 62 76 85 36 355 333 326 322
338 337 347 338 347 41 59 43 87 55 71 91 284 244 293 358 238 238 224 219 224 280 309 248 172 105 78 29 51 129 279 268 224 221 281 277 295 222 189 181 166 170 182 186 183 183 186 185 185 187 189 189 190 191 194 196 196 199 197 197 193 189 189 174 166 162 160 162 161 160 157 151 149 149 149 146 142 139 139 131 125 122 122 124 106 89 84 78 46 13 349 343 335 320 305 303 300
342 343 349 347 55 36 60 42 120 113 106 168 312 267 259 197 232 255 244 245 250 291 331 128 325 224 121 4 293 139 284 277 233 198 272 290 254 243 190 183 168 167 181 188 188 186 188 188 187 187 191 192 190 193 196 198 199 202 201 201 199 197 191 179 174 169 168 168 162 156 148 144 146 149 153 149 145 144 141 135 132 119 116 109 92 83 55 20 4 348 335 340 351 342 318 309 301
350 353 359 33 105 39 92 72 107 96 162 184 59 286 253 216 237 272 266 282 272 205 132 93 334 289 110 209 167 151 258 259 264 211 245 320 267 244 187 188 181 170 181 190 191 191 192 191 191 189 192 194 192 196 199 201 202 203 204 203 202 202 194 182 180 176 174 170 158 152 147 144 146 149 153 151 150 151 148 145 140 114 94 87 83 45 4 358 351 342 333 346 2 354 336 318 308
5 9 25 56 98 104 110 86 99 48 219 175 107 271 268 232 233 276 291 300 286 161 149 92 347 328 349 263 197 204 226 108 317 221 238 311 280 228 188 194 190 179 185 192 195 196 195 194 194 192 194 196 195 198 202 203 204 205 207 206 205 204 196 186 184 183 178 168 159 161 161 157 159 163 160 155 154 153 152 152 145 122 103 93 88 21 17 7 352 346 335 338 336 339 338 324 311
16 6 27 58 65 41 95 119 165 225 223 176 173 255 272 256 232 307 323 317 351 35 53 118 177 70 292 298 301 243 231 229 265 243 266 278 261 220 192 195 194 189 188 194 200 200 199 197 197 196 197 198 196 201 205 205 205 206 208 208 208 205 198 188 184 186 179 169 169 171 170 172 176 176 169 162 159 153 154 160 153 142 144 146 166 25 32 21 340 331 320 316 315 324 331 322 309
22 18 17 76 43 29 86 116 216 209 343 243 243 244 260 264 220 304 316 302 296 321 358 298 331 103 284 0 325 261 265 250 259 276 276 260 244 214 195 198 199 196 191 196 202 204 203 200 201 200 199 200 199 202 207 208 208 207 210 211 211 206 199 190 187 188 180 173 179 179 181 187 189 187 178 169 165 160 157 167 169 173 186 194 287 317 330 307 290 302 304 306 310 318 324 320 304
28 31 125 72 80 34 52 44 281 235 277 270 267 259 265 262 189 156 290 295 301 288 311 283 42 36 295 354 287 279 342 274 274 279 269 245 233 211 199 204 209 204 194 196 203 208 206 204 204 203 203 203 202 204 208 210 211 212 213 215 215 211 202 193 190 190 182 179 185 186 189 193 197 195 188 179 174 176 167 168 179 193 213 275 313 309 306 301 297 296 298 305 312 321 325 316 297
33 28 102 67 88 49 17 295 294 250 266 263 266 263 261 243 179 168 265 292 279 252 305 263 118 314 299 308 280 325 353 318 314 284 250 227 224 210 204 210 215 210 200 197 202 208 209 208 207 206 206 206 205 205 208 211 214 215 216 219 218 215 207 198 195 193 186 185 191 193 194 197 204 201 197 191 183 187 177 158 166 189 260 317 321 319 310 307 306 298 305 324 333 335 329 310 294
31 2 89 74 68 71 162 232 292 283 285 286 283 269 241 203 139 252 256 298 316 338 304 44 89 235 0 302 264 310 330 333 327 271 237 219 219 211 209 216 217 210 207 205 203 208 211 211 210 209 209 208 209 207 208 211 214 215 217 221 219 219 214 203 201 198 191 191 197 199 200 200 208 208 206 202 191 191 190 176 167 210 287 320 328 330 323 314 303 299 312 337 346 339 328 311 315
50 348 60 81 112 163 177 212 285 292 307 329 338 311 201 154 87 298 284 304 346 354 287 206 100 172 37 316 268 304 344 3 244 234 235 217 224 217 215 221 221 211 209 212 211 211 213 215 214 212 211 212 212 211 212 213 216 216 217 220 220 221 217 207 205 206 199 197 201 203 206 205 209 214 212 209 202 196 197 200 199 238 285 320 332 333 324 311 292 296 307 323 335 332 317 317 337
96 119 75 78 151 142 139 195 278 305 330 346 284 309 94 147 240 243 224 298 344 359 300 219 165 80 21 279 293 317 355 26 149 200 217 217 230 223 225 227 225 219 212 214 216 216 216 217 218 216 214 214 216 215 216 217 218 219 220 221 221 223 219 210 207 211 208 204 206 206 210 211 212 218 217 214 209 204 206 213 217 242 296 328 333 330 319 310 300 302 306 314 325 322 303 307 327
127 150 103 96 83 133 163 171 302 13 308 278 265 300 344 241 221 190 150 341 283 223 304 235 148 82 280 296 327 302 334 6 67 214 215 215 228 225 230 232 229 225 220 220 219 220 219 220 221 220 217 216 218 219 220 221 221 222 223 223 221 223 221 215 211 214 213 211 212 211 215 216 216 220 220 218 213 213 216 230 245 259 297 321 326 326 320 314 309 310 308 312 319 309 292 291 303
127 129 90 108 39 19 185 142 129 128 212 257 275 299 332 269 172 143 173 179 275 222 288 286 148 264 256 298 290 258 311 349 342 256 231 222 228 226 230 232 234 230 227 227 224 224 221 222 222 222 220 218 218 220 223 224 224 225 225 226 224 224 224 220 216 216 216 217 218 218 219 221 223 224 224 223 221 225 227 242 254 262 286 302 313 319 320 317 315 315 311 313 313 297 282 277 286
116 109 69 81 36 326 211 174 137 128 234 239 277 326 352 298 166 156 225 147 281 287 344 247 195 288 190 207 258 268 319 332 326 293 258 239 231 227 230 232 236 235 233 232 227 227 224 225 224 223 222 220 219 220 223 225 226 227 227 229 228 227 227 224 221 221 220 219 222 224 224 225 227 226 229 231 230 232 234 243 246 252 280 291 302 311 315 316 316 317 315 314 309 288 271 265 267
72 78 68 46 174 219 206 186 171 160 260 271 324 24 31 306 291 241 228 107 268 307 339 260 242 191 193 226 282 305 316 317 314 300 278 255 240 231 233 233 237 236 234 236 233 231 228 228 227 225 224 222 221 220 222 225 228 230 230 230 231 231 230 229 227 225 224 222 225 227 228 230 229 229 230 232 235 235 236 244 247 253 279 291 297 305 313 315 313 315 315 314 308 282 259 258 254
54 78 93 339 200 200 185 184 195 174 286 281 337 24 27 299 313 322 327 42 2 326 297 275 290 270 247 278 307 316 319 320 313 299 286 268 257 247 246 244 245 243 239 241 242 238 234 233 232 230 227 223 223 222 222 223 226 229 231 232 233 234 232 232 232 230 229 226 227 229 231 233 232 232 233 235 236 237 240 243 249 261 278 289 293 302 311 311 310 312 313 313 313 283 257 257 252
81 114 100 243 203 212 198 179 197 197 289 282 306 346 204 251 290 355 321 308 352 338 293 293 294 290 303 311 321 328 330 332 325 309 301 297 303 304 304 302 286 269 256 251 251 248 243 239 237 235 233 228 225 224 223 223 224 226 230 232 234 237 237 234 233 235 235 230 229 232 233 235 234 231 234 238 238 240 242 239 244 256 271 283 289 302 308 306 307 309 309 312 316 294 262 259 254
133 121 98 246 212 237 234 192 211 221 299 308 297 339 241 249 256 4 304 300 322 296 272 292 291 299 314 316 340 348 346 349 354 353 340 338 342 340 333 327 314 299 282 268 260 255 249 244 242 239 238 234 229 226 224 224 225 225 227 230 232 234 237 237 236 236 238 236 233 235 235 237 237 232 233 237 237 236 236 240 247 253 269 283 290 304 306 298 301 304 306 310 315 305 273 261 256
132 139 185 227 196 259 244 202 224 235 206 249 288 353 307 274 200 219 266 323 305 274 237 233 265 293 306 324 358 10 15 15 18 22 15 5 358 354 347 336 321 307 293 280 271 265 259 251 245 242 240 237 233 229 224 224 226 226 227 227 228 230 232 235 239 239 239 239 237 236 237 240 241 236 235 236 235 231 236 247 245 250 267 275 292 308 300 289 295 302 306 308 312 311 289 267 260
138 217 199 191 150 256 259 206 220 217 153 238 314 321 295 293 161 202 176 246 273 305 118 204 241 287 316 3 10 20 27 25 25 26 23 16 9 4 358 351 339 325 309 292 281 273 267 260 251 244 241 237 235 232 227 225 226 227 229 229 228 230 230 231 237 241 241 241 241 240 238 241 243 241 239 239 241 238 242 248 246 249 257 275 301 306 288 285 295 301 305 305 307 310 301 279 266
195 271 269 215 167 227 275 260 224 145 66 290 270 286 301 321 301 220 192 233 254 333 25 155 60 42 61 53 33 29 30 25 24 21 18 14 8 4 359 357 353 346 336 322 303 279 264 260 256 248 242 238 235 233 229 225 226 227 230 234 232 231 233 232 233 235 239 240 238 238 242 244 239 235 239 242 241 242 243 244 250 249 256 291 303 290 279 288 295 299 302 303 303 306 305 290 274
145 262 305 276 183 217 261 306 299 79 263 262 253 327 298 279 293 301 247 263 298 325 15 70 68 59 61 56 40 36 32 24 19 17 19 16 8 5 4 2 0 356 350 345 331 299 269 256 255 252 244 239 234 231 229 225 226 226 227 232 232 234 239 238 233 228 230 236 237 236 241 246 242 236 243 244 231 228 242 245 247 248 270 296 291 277 284 293 292 296 300 300 302 302 304 297 281
168 226 277 285 222 246 274 300 290 278 256 258 310 290 268 253 249 314 303 348 347 347 46 62 70 59 54 52 40 34 31 23 15 12 17 15 13 14 15 10 7 5 1 358 352 333 288 250 250 253 246 240 234 230 228 225 225 225 226 228 229 236 243 247 252 243 230 227 232 239 243 244 244 237 235 245 240 229 240 248 249 258 285 288 277 277 285 291 290 293 298 299 301 300 303 301 288
211 204 244 280 288 287 299 289 267 257 249 214 285 280 277 277 241 286 308 343 324 33 57 43 65 59 49 49 40 35 30 22 13 11 13 14 17 17 15 14 12 10 7 7 6 359 329 252 242 250 247 241 235 230 227 225 225 224 226 228 230 237 237 236 250 261 249 229 221 229 238 235 234 234 230 241 251 246 246 255 258 265 281 274 265 275 284 290 290 289 295 298 300 300 300 300 293
191 193 252 262 291 300 287 277 272 245 260 209 228 276 292 320 333 251 303 324 321 55 50 27 55 51 41 42 36 35 33 24 15 16 17 15 17 13 10 12 13 13 13 17 18 15 2 299 254 248 243 239 233 229 227 224 225 226 226 230 233 239 240 236 240 256 263 257 237 231 231 224 227 241 243 242 238 241 254 257 257 260 269 266 263 281 292 293 289 288 293 297 298 298 296 296 295
139 213 302 289 313 306 260 274 289 259 269 195 182 263 306 338 325 220 296 332 14 67 47 31 48 41 34 37 33 35 30 25 21 25 21 12 11 8 10 12 11 16 21 24 28 30 28 17 345 263 238 231 224 222 223 221 222 225 227 231 236 243 249 253 256 253 251 255 251 242 233 227 239 249 253 252 237 239 255 252 254 263 267 269 276 289 291 287 285 286 291 295 297 297 296 294 295
81 46 330 304 343 325 271 275 311 151 230 163 153 285 312 277 211 230 314 356 49 65 52 37 44 34 31 29 31 36 26 25 26 26 19 12 15 14 16 18 18 23 28 33 39 44 46 46 52 57 91 206 209 211 214 216 219 222 229 237 246 257 265 268 265 258 257 258 253 246 240 239 251 252 253 257 246 245 253 250 260 275 276 278 282 283 283 285 286 287 291 295 297 298 299 297 296
318 34 20 314 351 328 286 43 357 339 209 154 139 290 287 264 238 281 332 42 67 59 52 40 41 31 29 25 27 30 22 24 24 21 18 17 21 21 23 27 30 33 36 44 48 52 56 58 64 68 75 105 157 187 198 202 212 222 234 243 255 277 277 277 279 276 285 288 283 276 262 256 261 260 255 255 254 252 251 256 273 286 290 286 284 282 284 288 289 290 292 294 299 302 302 301 300
318 341 29 353 342 284 294 311 331 332 11 89 118 205 266 273 276 2 341 16 99 79 57 43 44 33 27 25 25 24 20 22 21 20 21 21 23 26 29 32 38 42 45 50 53 58 64 69 73 77 81 89 100 113 134 152 168 188 197 199 204 212 230 243 244 243 256 266 274 274 263 255 255 253 250 251 256 256 258 275 283 284 292 287 283 284 284 286 287 289 291 294 300 304 305 306 305
26 315 302 340 191 266 309 308 191 232 336 46 107 199 274 277 258 38 351 7 103 89 61 46 43 34 30 26 24 20 12 17 21 20 21 23 25 29 33 37 42 46 51 56 60 65 69 74 79 83 86 89 96 100 107 118 125 136 147 146 122 89 82 74 84 108 122 298 289 282 258 249 247 242 241 246 252 255 259 266 270 270 271 273 275 277 279 283 286 288 291 295 299 304 307 308 308
352 156 247 267 196 271 321 324 321 342 353 28 73 214 283 281 254 40 9 25 81 81 62 46 41 34 33 28 23 23 13 14 16 15 16 21 27 32 36 41 46 51 56 61 65 68 71 76 81 84 87 90 94 98 102 104 104 103 98 90 80 70 66 66 69 70 67 65 62 58 59 53 30 4 272 269 271 276 278 277 281 276 264 263 266 267 268 272 277 281 286 291 295 301 305 307 309
305 37 230 248 208 230 302 305 333 27 49 5 353 218 258 275 294 25 16 25 70 77 63 48 43 36 33 30 29 25 20 20 12 7 11 20 29 38 42 45 52 57 61 65 68 71 74 78 83 86 88 91 93 95 96 96 95 93 90 88 85 80 74 72 71 69 68 67 66 65 65 63 58 55 52 43 38 27 13 356 342 337 322 308 291 282 284 286 289 291 294 296 297 301 303 306 309
213 198 201 251 236 222 263 270 299 18 16 330 302 263 262 274 301 20 16 26 70 74 66 59 48 40 34 32 33 26 25 24 10 7 14 25 33 40 45 49 54 59 63 67 71 76 78 81 86 89 91 93 94 96 96 96 95 92 90 88 84 82 78 75 72 70 68 67 65 64 63 61 60 59 58 57 57 53 48 45 40 36 29 22 19 13 7 352 344 338 329 323 316 312 311 311 310
191 194 172 199 233 243 246 250 259 331 346 297 261 259 266 274 301 11 9 27 69 69 60 57 42 40 35 32 31 26 31 20 7 14 24 32 37 42 47 52 56 61 64 67 72 76 77 81 87 88 90 95 98 98 97 95 94 90 87 85 81 77 77 76 73 70 68 67 64 62 61 61 60 59 57 55 55 54 54 53 51 50 47 46 42 40 35 25 16 9 -0 350 341 336 331 328 324
155 181 190 200 224 263 261 259 281 336 310 273 245 251 269 269 308 355 356 33 57 48 51 51 39 40 32 32 30 23 28 16 15 25 32 36 41 45 49 54 60 63 64 66 70 72 74 79 83 82 85 92 95 95 95 92 90 88 85 83 80 77 76 76 73 70 68 67 65 61 59 58 57 56 54 53 54 54 54 53 53 52 50 47 46 45 42 35 30 22 14 7 2 359 352 348 341
162 204 250 258 226 254 261 256 300 357 180 264 285 305 280 272 357 359 10 49 42 27 49 47 37 40 30 31 28 21 17 12 22 27 28 34 40 44 49 55 59 60 60 64 68 70 75 79 80 80 83 87 87 89 91 90 89 91 88 85 83 80 76 75 75 72 70 68 65 63 61 59 57 57 56 55 56 55 54 52 51 50 48 48 49 49 46 42 37 29 23 17 15 11 6 2 354
227 208 243 270 241 273 284 284 332 16 177 266 333 323 281 294 57 26 36 64 54 42 62 57 51 49 37 33 26 23 25 19 23 21 22 30 37 42 48 53 57 60 62 66 70 74 77 79 81 84 86 87 88 89 91 91 93 94 93 89 86 82 76 76 77 74 72 70 67 65 63 62 61 61 60 59 59 58 56 55 53 52 50 49 49 49 47 45 41 37 32 25 22 19 16 12 4
220 198 206 252 235 256 279 289 336 8 160 261 325 307 280 42 72 43 49 82 82 64 67 64 63 65 55 51 41 35 36 26 22 19 19 27 34 39 46 52 57 62 64 66 71 75 77 79 83 86 88 90 92 94 95 96 96 95 93 90 89 86 80 78 78 73 71 70 67 66 63 62 63 63 63 61 61 61 59 59 57 55 54 51 49 48 45 43 41 37 34 29 25 20 20 16 9
237 208 209 233 222 211 231 280 331 343 11 5 358 317 294 272 127 111 86 94 79 57 60 56 45 52 60 59 51 40 40 33 26 25 17 24 31 38 48 56 61 63 65 68 72 76 79 82 85 88 90 92 94 97 100 102 101 98 96 93 90 85 76 72 70 67 67 68 66 65 63 62 62 62 61 60 61 61 60 60 59 58 56 53 50 49 46 41 38 34 31 29 27 24 20 16 12
279 227 213 221 221 221 233 334 7 -0 349 349 32 347 295 310 283 187 167 105 71 48 51 58 38 35 44 46 42 34 37 38 35 36 28 29 35 44 55 61 64 67 70 74 78 82 84 86 88 90 90 91 93 96 101 104 102 100 96 90 84 79 72 67 67 66 67 68 68 68 66 65 64 63 62 60 60 59 59 58 57 56 54 51 49 47 45 40 36 33 30 27 27 24 17 15 13
281 247 211 215 211 204 210 159 113 195 251 309 37 141 261 313 316 209 163 123 92 72 57 61 46 38 46 47 43 35 34 34 36 38 36 38 42 50 58 61 67 72 77 82 84 85 87 89 89 90 90 91 92 94 97 98 96 93 90 87 83 82 79 75 74 74 73 73 73 71 69 68 67 66 64 63 62 60 60 59 57 56 54 51 48 45 43 40 37 34 31 29 27 22 17 17 15
241 256 154 170 182 186 191 165 171 224 246 324 358 140 245 292 292 233 147 136 105 84 79 73 70 54 54 51 47 50 43 37 40 37 35 43 52 59 64 69 75 82 86 87 88 88 89 90 91 91 91 91 92 92 92 92 92 92 91 89 86 84 84 81 80 79 77 76 74 71 70 69 67 66 65 64 63 61 60 59 58 57 56 54 51 49 47 43 41 38 35 34 31 26 22 18 16
245 210 115 134 152 160 151 133 162 292 18 313 304 138 243 271 273 338 119 168 214 187 181 161 137 129 105 89 67 58 51 47 52 49 47 54 64 72 77 81 83 88 91 91 91 92 92 93 93 93 91 91 92 92 91 91 92 93 92 91 88 86 84 83 82 80 77 75 72 69 67 66 65 65 64 63 62 60 59 58 57 56 55 54 52 51 50 46 43 40 37 36 34 33 31 25 18
208 125 95 77 75 82 82 103 117 43 39 250 249 186 202 271 284 329 84 244 242 207 193 182 168 175 169 141 109 84 66 55 56 64 70 72 78 84 89 90 89 91 94 95 95 95 95 96 95 93 92 92 93 93 93 92 92 92 91 91 90 88 86 84 81 76 73 72 69 65 63 61 60 60 59 59 59 57 56 54 53 52 50 49 48 47 46 45 43 41 38 36 34 33 31 29 25
138 105 66 47 38 41 41 58 88 64 277 248 240 210 192 264 283 241 183 220 197 167 165 179 179 188 195 187 156 128 99 76 66 70 78 84 89 93 95 94 93 94 96 97 97 97 97 97 97 95 93 94 94 93 93 92 91 90 89 88 87 85 83 81 77 72 69 68 65 61 59 57 54 53 52 51 51 50 49 48 47 46 44 42 40 38 37 36 35 34 34 31 29 28 25 23 22
106 94 75 63 353 12 24 358 45 121 254 257 264 238 176 215 266 243 213 234 191 173 175 175 178 189 194 192 182 169 146 112 89 79 86 92 95 96 97 97 98 100 99 99 98 99 99 99 99 97 95 95 94 93 92 90 89 88 87 85 83 80 78 76 73 68 65 63 61 58 55 53 50 48 45 43 41 39 39 38 37 36 34 32 30 28 26 25 24 22 21 20 19 18 15 13 12
83 100 95 87 334 5 1 314 302 227 248 254 269 198 178 227 249 228 224 254 255 248 205 175 174 182 186 187 183 174 156 134 118 109 101 101 102 102 104 106 107 105 103 103 103 103 102 101 101 99 96 95 95 93 91 89 87 85 83 81 79 76 73 71 70 67 63 60 57 53 49 46 43 40 37 35 32 30 29 28 27 26 24 22 19 17 15 13 12 11 9 9 8 6 4 3 0
140 146 127 128 116 63 294 274 277 269 262 255 278 80 211 264 261 210 235 264 264 262 236 190 176 175 176 176 173 164 154 149 142 137 127 121 122 120 118 118 117 113 110 108 107 106 105 103 102 100 98 96 94 92 90 88 85 82 80 78 75 72 69 66 65 63 60 56 52 48 44 40 37 33 30 28 25 22 22 20 19 17 16 14 12 9 8 5 4 3 2 1 360 358 355 353 351
170 159 131 144 155 162 227 227 220 260 281 291 295 127 190 215 228 224 243 280 298 273 204 168 159 159 156 156 161 164 162 159 157 155 155 148 140 136 134 132 126 120 117 114 112 110 108 106 104 103 101 98 95 92 90 87 85 81 78 75 71 68 65 63 62 59 56 53 48 44 40 34 31 28 24 22 18 16 14 12 11 9 8 7 6 3 2 0 359 358 357 357 356 353 349 348 346
201 132 114 160 179 156 183 195 177 200 299 292 244 226 220 188 209 293 291 343 3 42 128 141 148 150 148 163 176 176 174 172 173 173 174 168 156 152 150 144 136 128 123 120 118 115 112 109 107 105 103 100 96 93 90 88 86 82 78 74 70 66 63 60 58 55 51 48 43 39 34 29 26 22 19 16 13 10 8 5 4 2 1 -0 359 358 356 355 354 353 352 351 350 349 347 346 344
158 123 172 213 176 121 112 227 100 73 283 270 199 235 284 324 296 321 29 37 39 88 135 151 161 164 169 187 189 182 184 183 184 188 186 180 172 169 164 155 145 137 130 125 122 119 116 113 111 109 106 103 99 95 93 91 88 85 80 75 69 63 58 54 50 47 43 39 36 32 27 22 19 15 12 10 8 6 3 1 359 358 357 356 354 353 352 351 350 349 348 347 346 344 342 342 342
121 180 210 197 131 96 99 233 356 38 252 274 266 232 260 199 252 325 45 93 192 177 171 168 174 182 190 196 192 191 193 189 193 197 194 190 184 179 172 162 151 142 135 129 125 122 119 116 113 111 108 105 102 99 96 93 90 86 81 74 67 59 53 48 43 39 35 31 28 24 18 14 12 9 6 4 2 0 358 357 356 355 354 353 352 351 349 348 347 346 345 343 343 341 339 338 337
121 189 191 111 141 146 91 167 238 256 250 287 305 262 243 204 203 216 205 205 197 189 186 186 192 195 197 198 196 196 192 189 197 198 198 199 194 187 177 166 155 146 139 133 130 126 122 119 114 111 109 108 107 104 100 95 90 86 82 75 65 55 46 39 33 28 24 21 18 15 10 7 5 1 359 358 356 354 353 352 352 351 350 349 349 348 347 346 346 345 344 343 342 341 338 336 335
73 116 86 69 158 167 149 152 165 199 233 287 300 300 248 230 200 186 202 197 181 182 190 197 200 198 197 196 192 193 191 192 196 193 197 200 196 191 180 169 159 151 145 140 136 132 128 123 119 116 116 115 112 108 104 99 94 88 79 66 52 41 33 27 21 16 12 11 8 4 1 359 356 353 351 351 350 348 347 346 345 344 343 342 342 342 342 342 341 341 340 340 339 338 336 334 333
128 136 160 187 114 108 214 210 124 139 179 223 285 286 260 251 197 188 204 192 179 183 188 196 202 198 198 198 191 190 192 195 196 191 194 197 195 191 182 173 164 156 151 148 143 139 134 131 128 126 124 123 119 114 109 103 95 81 61 48 36 27 22 16 10 7 4 2 358 354 353 351 348 345 344 344 343 341 340 339 337 336 335 335 335 335 335 335 335 334 334 333 332 331 329 328 327
158 181 191 187 175 145 212 247 179 114 180 182 216 273 267 250 194 196 207 189 187 190 188 193 199 194 197 200 192 190 193 195 196 192 192 194 193 189 183 176 170 165 160 156 151 147 144 140 138 137 134 129 124 118 111 102 89 66 47 38 24 14 11 6 2 0 358 356 353 351 349 346 345 344 343 342 340 339 338 336 335 335 334 334 334 334 334 334 333 332 330 329 328 326 323 322 321